Погода Спас-Деменск

Погода Спас-Деменск : погода сейчас, прогноз погоды и архив. Всё, что Вы хотите узнать о погоде Спас-Деменск!

Поиск расширенной информации на нашем сайте:

Другие новости

Новости СМИ2

Главная страница сайта

Новости сайта

03.07.2017

Напоминаем, что на нашем специализированном сайте Метеоцентр.Азия вы можете получить высокодетализированные автоматические прогнозы погоды по пунктам России, СНГ и мира в авиационном формате (включающие направление и скорость ветра, видимость, явления погоды, количество и форму облачности, нижнюю и верхнюю границу облачности).

Рекомендуем: http://www.dance-1.ru Сальса из свежих овощей

Погода Спас-Деменск - сегодня

Время (UTC), дата Ветер
(°,м/с) 
Видим.   Явления Облачность Т
(°С)
Тd
(°С)
f(%) Тe
(°С)
Pmin
(гПа)
dP
(гПа)
Po
(мм)
O2
(г/м3)
Тmin Tmax R s Состояние
почвы
00 17.04.18 тихо ()   10 км    10/0 2000 м средняя 
[Ac As]
+8.9 +4.9 76 +9  1017.5  0.1  742  289           
09 17.04.18 210 (ЮЗ) 15000 м    10/0 1000 м средняя 
[As op]
+18.1 +7.2 49 +19  1015.9  0.1  741  279           
12 17.04.18 190 (Ю) 15000 м    10/0 2000 м средняя 
[Ac und]
+20.6 +4.9 36 +21  1014.6  -1.1  740  277           
18 17.04.18 210 (ЮЗ) 10 км  слаб. дождь  10/10 600 м 
[Sc]
+14.3 +6.2 58 +15  1014  -0.5  739  282    +21.2  0.0     
06 18.04.18 290 (З) 4{10}  15000 м  {дождь}  10/10 660 м 
[Sc]
+7.5 +4.6 82 +6  1013.8  1.1  739  289  +7.3    0.4    влажная 
18 18.04.18 290 (З) 4{10}  12000 м  слаб. дождь  10/10 570 м 
[Sc]
+6.8 +5 88 +5  1013.2  -0.2  738  289    +10  0.7     
06 19.04.18 330 (СЗ) 9000 м  слаб. дождь  10/10 400 м 
[Frnb|Ns]
+6.5 +5.6 94 +6  1008.3  0.1  735  288  +5.7      мокрая 
21 19.04.18 340 (С) 10 км    ясно 
+7.2 +3.4 77 +6  1014  739  289           
00 20.04.18 350 (С) н/о    н/о 
+6.2 +1.5 72 +5  1015.1  0.9  740  291           
21 20.04.18 230 (ЮЗ) 10 км    ясно 
+7 +0.1 61 +8  1014.2  -1.6  739  290           
00 21.04.18 230 (ЮЗ) 10 км    ясно 
+8.2 +1.2 61 +8  1011.6  -2.4  737  288           
18 21.04.18 320 (СЗ) 6-15{17}  10 км  {гроза, ливн. осадки}  6/6 300 м кучево-дожд. 
[Cb cap]
+11.3 -0.2 45 +10  997.7  4.5  727  281    +21.9     
21 21.04.18 290 (З) 4{17}  15000 м    6/0 2000 м средняя 
[Ac trans]
+7.7 -0.1 58 +6  1000.8  2.6  729  286           
06 22.04.18 300 (СЗ) 4{11}  15000 м  {ливн. осадки, дождь}  10/10 630 м 
[Sc]
+6.5 +1.4 70 +5  1002.2  0.5  730  287  +5.1    0.4    влажная 
18 22.04.18 030 (СВ) 3{10}  10 км  {ливн. осадки}  8/8 300 м кучево-дожд. 
[Cb cap]
+4.6 -2.9 58 +3  1009.5  3.5  735  292    +8.4     
21 22.04.18 350 (С) 10 км    8/0 2000 м средняя 
[Ac As]
+2.1 -3.1 68 +3  1012.1  2.2  737  295           
00 23.04.18 350 (С) 10 км    10/0 2000 м средняя 
[Ac und]
+1 -3.2 73 1013.5  1.3  738  297           
09 23.04.18 330 (СЗ) 15000 м    3/3 1000 м 
[Cu hum]
+5.9 -9 33 +6  1015.9  0.1  740  293           
12 23.04.18 320 (СЗ) 15000 м    5/0 верхняя 
[Ci ing]
+8.8 -9.7 26 +9  1014.9  -0.7  740  290           
15 23.04.18 300 (СЗ) 15000 м    ясно 
+8.7 -9.1 27 +8  1014.4  -0.5  739  289    +9.6       
21 23.04.18 тихо ()   10 км    ясно 
-2.1 -4.4 84 -2  1015.5  -0.4  739  301           
00 24.04.18 тихо ()   10 км    ясно 
-3.7 -5 91 -4  1015.7  739  302           
09 24.04.18 210 (ЮЗ) 15000 м    9/0 2000 м средняя 
[Ac As]
+11.4 -4.6 32 +12  1012.5  -1  738  286           
12 24.04.18 190 (Ю) 15000 м    10/0 2000 м средняя 
[Ac und]
+11.6 -1.5 40 +11  1011.2  -1.2  737  285           
21 24.04.18 190 (Ю) 10 км  {дождь}  8/3 2000 м средняя, верхняя 
[Ac trans|Ci sp]
+6.2 +3.1 81 +7  1008.6  -0.7  735  289           
Время (UTC), дата Ветер
(°,м/с) 
Видим.   Явления Облачность Т
(°С)
Тd
(°С)
f(%) Тe
(°С)
Pmin
(гПа)
dP
(гПа)
Po
(мм)
O2
(г/м3)
Тmin Tmax R s Состояние
почвы

Для получения пояснительной информации подведите курсор к названию столбца.

ПОГОДА Спас-Деменск - архив

Всё, что Вы хотите узнать о погоде Спас-Деменск - удобно и подробно!

Выберите нужную дату (начиная с 1 января 2015* года) и нажмите кнопку "Найти".
Будут отображены архивные сводки погоды по пункту Спас-Деменск, начиная с указанной даты.


Отображать данные в формате CSV (для использования в таблицах Excel)


Внимание! Наш архив погоды предназначен исключительно для личного некоммерческого использования в познавательных целях. Если Вам необходимы официальные справки о состоянии погоды (для производственных, юридических, коммерческих и т.п. целей), обращайтесь в органы Росгидромета.

*Примечание: данная дата относится к архиву по метеостанциям СССР (Россия, СНГ, Балтия).
Архив по метеостанциям Зарубежной Европы и Азии (кроме Китая) хранится 10 дней, по другим регионам земного шара (Китай, Африка, Америка, Австралия, Океания) - 1 день.

Спас-Деменск - район местоположения метеостанции


Название, широта, долгота, высота метеостанции:
Спас-Деменск 54.4°ш. 34°д. 238 м над ур. моря [Российская Федерация]

Дополнительная информация

В oтличие oт бoльшинства пoгoдных сайтoв мы публикуем пoдрoбную метеoинфoрмацию в детальнoм прoфессиoнальнoм фoрмате.

Характеристики температуры и влажнoсти вoздуха измеряются на высoте 2 м в тени вдали oт зданий и деревьев.
Скoрoсть ветра измеряется на высoте 10 м (на урoвне рoста челoвека скoрoсть ветра ниже в 1.5-2 раза). Если метеoстанция нахoдится в гoрoде или в лесу, тo скoрoсть ветра занижена на 2-4 м/с пo сравнению с oткрытым местoм. Скoрoсть ветра над акватoриями крупных рек и oзёр, а также на вершинах хoлмoв на 2-5 м/с выше, чем в oбычных услoвиях.
Атмoсфернoе давление в разных тoчках местнoсти мoжет значительнo oтличаться oт давления на метеoстанции, в зависимoсти oт услoвий рельефа (при пoдъёме на 10 м давление пoнижается примернo на 1 мм рт.ст.).